Regional Weather Roundup
Issued by NWS Cleveland, OH

Home | Current Version | Previous Version | Graphics & Text | Print | Product List | Glossary On
Versions: 1 2 3 4 5 6 7 8 9 10 11 12 13 14 15 16 17 18 19 20 21 22 23 24 25 26 27 28 29 30 31 32 33 34 35 36 37 38 39 40 41 42 43 44 45 46 47 48 49 50
852
ASUS41 KCLE 171310
RWRCLE
OHIO REGIONAL WEATHER ROUNDUP
NATIONAL WEATHER SERVICE CLEVELAND, OH
800 AM EST FRI NOV 17 2017

NOTE: "FAIR" INDICATES FEW OR NO CLOUDS BELOW 12,000 FEET WITH NO
SIGNIFICANT WEATHER AND/OR OBSTRUCTIONS TO VISIBILITY.

OHZ001>008-015>018-024>027-034-035-043-044-171400-
   NORTHWEST OHIO

CITY           SKY/WX    TMP DP  RH WIND       PRES   REMARKS
DEFIANCE       CLOUDY    32  27  81 SE5       30.25S WCI  27
FINDLAY        CLOUDY    33  27  78 SE5       30.26S WCI  29
TOLEDO EXPRESS CLOUDY    37  29  72 VRB3      30.26S
TOLEDO EXEC    CLOUDY    37  28  70 S6        30.29S
LIMA           CLOUDY    34  30  85 S5        30.25S WCI  30
$$

OHZ009>014-019>023-028>033-038-089-171400-
   NORTHEAST OHIO

CITY           SKY/WX    TMP DP  RH WIND       PRES   REMARKS
CLE-HOPKINS    CLOUDY    38  29  70 NW5       30.31R
CLE-LAKEFRONT  CLOUDY    39  27  62 NW8       30.29R
CUY CO. ARPT   CLOUDY    37  30  75 CALM      30.29R
LORAIN-ELYRIA  CLOUDY    37  28  70 CALM      30.29R
ASHTABULA      CLOUDY    36  30  79 CALM      30.28R
AKRON-CANTON   CLOUDY    36  27  69 N5        30.27R
WOOSTER        CLOUDY    36  28  73 CALM      30.28R
MANSFIELD      CLOUDY    34  27  75 CALM      30.27R
YOUNGSTOWN     CLOUDY    35  28  75 NW5       30.26R
$$

OHZ042-051>053-060>062-070>072-077>081-171400-
  SOUTHWEST OHIO

CITY           SKY/WX    TMP DP  RH WIND       PRES   REMARKS
CINC-COVINGTON CLOUDY    34  30  85 SE14      30.25R WCI  25
CINC-LUNKEN    CLOUDY    37  30  75 SE7       30.28S
HAMILTON       CLOUDY    37  31  78 VRB3      30.26S
DAYTON         CLOUDY    36  31  82 SE10      30.25R
WRIGHT-PAT AFB CLOUDY    37  30  77 SE7       30.25S
DAYTON GENERAL CLOUDY    35  29  78 SE7       30.24R WCI  29
WILMINGTON     CLOUDY    35  31  85 SE6       30.25R
$$

OHZ036-037-039>041-045>050-054>059-063>069-073>076-082>088-171400-
  CENTRAL AND SOUTHEAST OHIO

CITY           SKY/WX    TMP DP  RH WIND       PRES   REMARKS
COLUMBUS       CLOUDY    38  30  73 SE6       30.27S
OSU AIRPORT    CLOUDY    37  31  78 E3        30.26S
BOLTON FIELD   CLOUDY    37  30  75 S5        30.26F
RICKENBACK AFB CLOUDY    37  32  81 S7        30.27S
NEWARK         CLOUDY    38  27  64 SE5       30.28R
MARION         CLOUDY    35  27  72 SE7       30.27S WCI  29
LANCASTER      CLOUDY    38  30  73 CALM      30.29R
ZANESVILLE     CLOUDY    37  27  67 CALM      30.30R
NEW PHILLY     NOT AVBL
$$




USA.gov is the U.S. government's official web portal to all federal, state and local government web resources and services.